Other Public Products
Issued by NWS Grand Forks, ND

Home | Current Version | Previous Version | Graphics & Text | Print | Product List | Glossary On
Versions: 1 2 3 4 5 6 7 8 9 10 11 12 13 14 15 16 17 18 19 20 21 22 23 24 25 26 27 28 29 30 31 32 33 34 35 36 37 38 39 40 41 42 43 44 45 46 47 48 49 50
000
FPUS83 KFGF 231810
OPUFGF
PRAIRIE TO PINES WEATHER ROUNDUP
NATIONAL WEATHER SERVICE EASTERN NORTH DAKOTA/GRAND FORKS ND
100 PM CDT SAT JUL 23 2016

 **SATELLITE DATA USED TO AUGMENT SKY COVER AT AUTOMATED STATIONS**
 *****  WEATHER ACROSS EASTERN NORTH DAKOTA  *****

CITY           SKY/WX    TMP DP  RH WIND       PRES   REMARKS
GRAND FORKS    TSTM      66  64  93 NE17      29.80F FOG
6HR MIN TEMP:  66; 6HR MAX TEMP:  74; 6HR PCP:  0.32;

GRAND FORKS AF LGT RAIN  66  64  94 NE18G26   29.74F
GRAND CITY NWS   N/A     64 N/A N/A N16         N/A
BUXTON           N/A     67  67  99 NW17G41     N/A
DEVILS LAKE    CLOUDY    69  65  86 SE12      29.73R
6HR MIN TEMP:  66; 6HR MAX TEMP:  69; 6HR PCP:  0.28;

FARGO          CLOUDY    78  69  73 S7        29.78R
6HR MIN TEMP:  73; 6HR MAX TEMP:  84;

WAHPETON ARPT  CLOUDY    73  64  73 SE9       29.78R
$$

 *****  WEATHER ACROSS CENTRAL AND WESTERN NORTH DAKOTA  *****

CITY           SKY/WX    TMP DP  RH WIND       PRES   REMARKS
JAMESTOWN      CLOUDY    72  68  87 E9        29.74F
6HR MIN TEMP:  65; 6HR MAX TEMP:  74;

BISMARCK       CLOUDY    76  67  73 CALM      29.79R
6HR MIN TEMP:  66; 6HR MAX TEMP:  77; 6HR PCP:  0.18;

MINOT          CLOUDY    73  66  78 SW8       29.79S
6HR MIN TEMP:  66; 6HR MAX TEMP:  73; 6HR PCP:  0.31;

MINOT AFB      CLOUDY    71  65  81 W9        29.78F
6HR MIN TEMP:  65; 6HR MAX TEMP:  71; 6HR PCP:  0.05;

GARRISON         N/A     72  66  81 W8        29.81S
6HR MIN TEMP:  64; 6HR MAX TEMP:  72; 6HR PCP:  0.17;

WILLISTON      SUNNY     80  47  31 W23G32    29.83S
6HR MIN TEMP:  67; 6HR MAX TEMP:  81;

DICKINSON      SUNNY     77  51  40 NW23      29.87R
6HR MIN TEMP:  62; 6HR MAX TEMP:  77;

HETTINGER      SUNNY     83  53  35 N26G37    29.90R
6HR MIN TEMP:  66; 6HR MAX TEMP:  83;

$$

 *****  OTHER OBSERVATIONS NORTHEAST NORTH DAKOTA  *****

CITY           SKY/WX    TMP DP  RH WIND       PRES   REMARKS
WALHALLA       NOT AVBL
LANGDON        FAIR      68  66  94 NW8       29.74R
CAVALIER       LGT RAIN  64  64 100 SE15G41   29.63F
GRAFTON        RAIN      64  64 100 NE8       29.81F
CANDO          NOT AVBL
FORT TOTTEN    NOT AVBL
ROLLA            N/A     73  64  73 N3        29.79R
RUGBY          NOT AVBL
 ***** THE ABOVE OBSERVATIONS ARE NON NWS ARE NOT QUALITY
        CONTROLLED AND MAY MIS-REPORT RAIN FOR SNOW...
$$

 *****  OTHER OBSERVATIONS SOUTHEAST NORTH DAKOTA *****

CITY           SKY/WX    TMP DP  RH WIND       PRES   REMARKS
COOPERSTOWN    NOT AVBL
VALLEY CITY    FAIR      66  66 100 NE8       29.77S
OAKES            N/A    N/A N/A N/A MISG        N/A
GWINNER        CLOUDY    81  72  74 N24G33    29.78R
SHEYENNE NWR     N/A     77  70  79 NW7       29.95S
BUFFALO          N/A     68  65  92 N15         N/A
WYNDMERE       NOT AVBL
 ***** THE ABOVE OBSERVATIONS ARE NON NWS ARE NOT QUALITY
       CONTROLLED AND MAY MIS-REPORT RAIN FOR SNOW...
$$

  *****  WEATHER ACROSS NORTHERN MINNESOTA  *****

CITY           SKY/WX    TMP DP  RH WIND       PRES   REMARKS
FLAG ISLAND    CLOUDY    72  63  73 NE7       29.86S
WARROAD        CLOUDY    73  66  78 NE7       29.85R
ROSEAU         CLOUDY    72  64  78 N8        29.84R
HALLOCK        RAIN      66  64  94 NE7       29.83R
THF RVR FALLS  NOT AVBL
HALSTAD        NOT AVBL
FOSSTON        PTSUNNY   79  66  65 SE12G20   29.80R
BAUDETTE       CLOUDY    77  63  61 E8        29.85R
6HR MIN TEMP:  64; 6HR MAX TEMP:  78;

WASKISH        CLOUDY    79  66  65 E5        29.86R
CROOKSTON      CLOUDY    72  66  83 NW14G23   29.82R
$$
  *****  WEATHER ACROSS CENTRAL AND WEST MINNESOTA  *****

CITY           SKY/WX    TMP DP  RH WIND       PRES   REMARKS
BEMIDJI        CLOUDY    79  64  61 SE14G21   29.85R
PARK RAPIDS    CLOUDY    77  66  68 SE9       29.84R
6HR MIN TEMP:  71; 6HR MAX TEMP:  78;

WADENA         CLOUDY    72  66  83 SE10      29.84R
DETROIT LAKES  CLOUDY    75  66  73 SE12      29.82R
MOORHEAD       CLOUDY    75  70  83 W5        29.82R
FERGUS FALLS   CLOUDY    75  66  73 SE9       29.80R
ELBOW LAKE     FAIR      74  67  78 SE10      29.79R
MORRIS MN      CLOUDY    73  72  94 E13       29.78R
STAPLES        LGT RAIN  70  66  88 SE5       29.85S
WHEATON        CLOUDY    79  70  73 SE9       29.79R
$$
  *****  WEATHER ELSEWHERE ACROSS MINNESOTA  *****

CITY           SKY/WX    TMP DP  RH WIND       PRES   REMARKS
DULUTH         CLOUDY    73  62  68 E13       29.94F
6HR MIN TEMP:  67; 6HR MAX TEMP:  78;

INTRNTL FALLS  CLOUDY    79  63  57 SE10      29.89R
6HR MIN TEMP:  61; 6HR MAX TEMP:  80;

ELY            CLOUDY    77  57  50 SE12      29.97R
CLOQUET        CLOUDY    72  59  64 E9        29.93F
BRAINERD       LGT RAIN  72  68  87 S7        29.88R FOG
6HR MIN TEMP:  69; 6HR MAX TEMP:  76; 6HR PCP:  0.01;

HIBBING        CLOUDY    75  60  59 SE9       29.92R
6HR MIN TEMP:  56; 6HR MAX TEMP:  79;

ALEXANDRIA     LGT RAIN  70  68  93 E10       29.87R
6HR MIN TEMP:  69; 6HR MAX TEMP:  74; 6HR PCP:  0.13;

SAINT CLOUD    LGT RAIN  69  69 100 E9        29.86R
6HR MIN TEMP:  69; 6HR MAX TEMP:  75; 6HR PCP:  1.27;

MINNEAPOLIS    LGT RAIN  73  71  93 E10       29.88F FOG
6HR MIN TEMP:  72; 6HR MAX TEMP:  82; 6HR PCP:  1.30;

$$

  *****  WEATHER ACROSS SOUTH DAKOTA  *****

CITY           SKY/WX    TMP DP  RH WIND       PRES   REMARKS
SIOUX FALLS    CLOUDY    87  72  60 S15G22    29.78F HX  93
6HR MIN TEMP:  72; 6HR MAX TEMP:  87; 6HR PCP:  0.05;

BROOKINGS      CLOUDY    82  74  76 S16G23    29.78R
WATERTOWN      CLOUDY    83  71  67 S18G26    29.76S
6HR MIN TEMP:  69; 6HR MAX TEMP:  85; 6HR PCP:  0.68;

HURON          SUNNY     88  73  61 S15G22    29.72S HX  95
6HR MIN TEMP:  71; 6HR MAX TEMP:  88; 6HR PCP: TRACE;

SISSETON         N/A     82  73  74 SE12      29.74R
ABERDEEN       PTSUNNY   83  72  69 SW6       29.75R
6HR MIN TEMP:  74; 6HR MAX TEMP:  84; 6HR PCP: TRACE;

MITCHELL       SUNNY     88  72  58 S12       29.74F HX  94
PIERRE         SUNNY     93  65  39 W20G26    29.72R HX  95
6HR MIN TEMP:  75; 6HR MAX TEMP:  94;

MOBRIDGE       MOSUNNY   87  72  60 NW15      29.73R HX  93
RAPID CITY     SUNNY     87  46  24 NW24G33   29.95R
6HR MIN TEMP:  63; 6HR MAX TEMP:  87;

$$

  *****  SOME WEATHER IN NEARBY STATES *****

CITY           SKY/WX    TMP DP  RH WIND       PRES   REMARKS
GLASGOW MT     SUNNY     75  49  39 W26G32    29.88R
6HR MIN TEMP:  62; 6HR MAX TEMP:  75;

GREAT FALLS MT PTSUNNY   75  40  28 W15       30.09R
6HR MIN TEMP:  57; 6HR MAX TEMP:  75;

CHEYENNE WY    SUNNY     91  36  14 W17       30.15F
6HR MIN TEMP:  66; 6HR MAX TEMP:  92;

SCOTTSBLUFF NE SUNNY     91  49  23 NW14      30.00S
6HR MIN TEMP:  62; 6HR MAX TEMP:  91;

OMAHA NE       CLOUDY    85  74  69 S8        29.83S HX  92
6HR MIN TEMP:  82; 6HR MAX TEMP:  85; 6HR PCP: TRACE;

DES MOINES IA  CLOUDY    88  77  69 SW8       29.87R HX 100
6HR MIN TEMP:  80; 6HR MAX TEMP:  91;

DAVENPORT IA   CLOUDY    87  79  76 SE8       29.97S HX 101
6HR MIN TEMP:  77; 6HR MAX TEMP:  87;

CHICAGO IL     CLOUDY    89  73  59 SW6       29.98S HX  97
6HR MIN TEMP:  80; 6HR MAX TEMP:  90;

EAU CLAIRE WI  LGT RAIN  73  70  90 W6        29.96F
6HR MIN TEMP:  73; 6HR MAX TEMP:  84; 6HR PCP:  0.02;

LA CROSSE WI   RAIN      73  71  93 SE5       29.97F FOG
6HR MIN TEMP:  72; 6HR MAX TEMP:  79; 6HR PCP:  0.83;

$$

  *****  SOME NATIONAL WEATHER *****

CITY           SKY/WX    TMP DP  RH WIND       PRES   REMARKS
LA GUARDIA NY  MOSUNNY   94  58  29 W15G25    29.81F HX  93
6HR MIN TEMP:  84; 6HR MAX TEMP:  95;

RALEIGH NC     MOSUNNY   91  71  51 SE6       29.99F HX  97        C1F1C2F2C3F3C4F4C5F5C6F6C7F7C8F8C9F9CaFaCbFbCcFcCdFdCe!



USA.gov is the U.S. government's official web portal to all federal, state and local government web resources and services.